Regional Weather Roundup
Issued by NWS

Home | Current Version | Previous Version | Text Only | Print | Product List | Glossary On
Versions: 1 2 3 4 5 6 7 8 9 10 11 12 13 14 15 16 17 18 19 20 21 22 23 24 25 26 27 28 29 30 31 32 33 34 35 36 37 38 39 40 41 42 43 44 45 46 47 48 49 50
000
ASUS44 KOUN 210710
RWROK

WEATHER ROUNDUP FOR OKLAHOMA
NATIONAL WEATHER SERVICE NORMAN OK
200 AM CDT THU AUG 21 2014

NOTE: "FAIR" INDICATES FEW OR NO CLOUDS BELOW 12,000 FEET WITH NO
      SIGNIFICANT WEATHER AND/OR OBSTRUCTIONS TO VISIBILITY.

OKZ001>007-009>012-014-015-017-210800-
NORTHWEST OKLAHOMA AND THE PANHANDLE

CITY           SKY/WX    TMP DP  RH WIND       PRES   REMARKS
GAGE           PTCLDY    84  61  45 S21       29.87F
ENID/WOODRING  CLEAR     79  68  69 S12       29.88F
$$

OKZ016-021>023-033>039-044-045-210800-
SOUTHWEST OKLAHOMA

CITY           SKY/WX    TMP DP  RH WIND       PRES   REMARKS
LAWTON/REGL    CLEAR     83  64  52 S12       29.91S
LAWTON/FT SILL CLEAR     83  65  55 S12       29.90S
FREDERICK      CLEAR     79  59  50 SE8       29.87R
CLINTON        CLEAR     81  55  40 S13       29.92S
HOBART         CLEAR     80  58  46 S8        29.91R
ALTUS AFB      CLEAR     76  58  53 E8        29.89S
$$

OKZ018>020-024>031-210800-
CENTRAL OKLAHOMA

CITY           SKY/WX    TMP DP  RH WIND       PRES   REMARKS
OKLAHOMA CITY  PTCLDY    81  67  62 S12       29.92F
OKC/WILEY POST CLEAR     82  68  62 S17       29.92S
OKC/TINKER AFB CLEAR     81  69  66 S16G23    29.93F
STILLWATER     CLEAR     81  68  64 S12       29.91S
GUTHRIE        CLEAR     82  68  62 S12       29.90F
$$

OKZ008-013-054>072-210800-
NORTHEAST OKLAHOMA

CITY           SKY/WX    TMP DP  RH WIND       PRES   REMARKS
TULSA          CLEAR     80  70  71 S13       29.92F
TULSA/JONES    CLEAR     80  70  71 S6        29.94S
PONCA CITY     CLEAR     83  67  58 S10G22    29.89F
BARTLESVILLE   CLEAR     78  70  76 SE6       29.93S
MUSKOGEE       CLEAR     76  70  82 SE8       29.97S
$$

OKZ032-040>043-046>053-073>077-210800-
SOUTH CENTRAL/SOUTHEAST OKLAHOMA

CITY           SKY/WX    TMP DP  RH WIND       PRES   REMARKS
ARDMORE/DWNTWN CLEAR     79  68  69 S7        29.94F
MCALESTER      CLEAR     81  70  69 S8        29.97F
$$



USA.gov is the U.S. government's official web portal to all federal, state and local government web resources and services.